GFSFLT1_sfc_thetae_075.txt.gz
Theta_e
297 297 297 297 298 298 299 299 300 300 301 302 303 304 304 303 303 303 303 302 300 302 304 304 304 304 303 301 300 298 298 298
297 297 297 297 298 298 298 299 299 299 300 300 301 302 302 303 302 302 300 300 298 297 299 300 301 301 301 301 299 298 298 297
296 296 296 296 296 297 298 298 299 299 299 299 300 300 300 301 300 299 299 296 297 295 296 297 298 299 299 298 297 296 295 294
296 295 295 295 296 296 297 298 298 298 298 298 298 299 300 300 298 297 296 294 291 292 292 293 294 295 296 296 295 295 295 293
296 296 296 296 296 296 296 297 297 298 298 297 298 299 299 298 297 296 294 291 288 289 289 288 289 290 291 292 292 292 291 289
297 297 297 296 296 296 296 296 296 297 296 298 297 296 296 294 292 291 289 288 287 285 285 285 287 288 288 289 289 288 286 286
298 297 296 297 296 296 295 295 294 295 295 296 293 292 291 291 290 289 287 286 285 284 284 284 285 288 290 289 287 287 285 283
294 295 295 294 294 294 293 292 290 289 288 288 288 288 289 288 288 287 285 284 283 283 282 284 285 288 290 289 285 285 285 284
293 292 292 291 290 288 286 286 286 286 285 285 285 286 285 284 285 283 283 282 281 281 281 283 283 287 290 289 284 284 284 283
290 289 289 288 285 283 284 284 285 286 285 285 284 284 283 283 282 280 279 278 278 279 279 282 282 286 289 288 283 282 282 282
287 287 285 283 282 282 283 282 283 284 284 285 283 281 280 281 279 278 279 280 282 283 283 283 282 286 288 287 282 281 280 281
287 285 284 283 281 281 281 281 282 281 281 280 280 279 279 278 282 283 283 282 281 281 281 281 282 284 288 288 282 281 280 280
282 282 283 281 280 279 280 281 279 278 278 277 274 278 280 284 282 282 281 280 280 279 279 279 281 284 287 288 284 284 281 280
279 279 280 278 279 277 278 278 277 273 272 272 274 275 276 282 281 280 280 279 278 278 278 278 280 282 286 288 285 285 281 282
277 275 275 276 276 278 277 277 272 273 275 274 273 273 275 276 277 278 279 278 278 278 277 277 278 278 283 284 284 284 282 283
277 275 273 273 273 276 279 273 273 273 277 279 276 274 275 276 273 274 274 277 276 274 275 275 274 278 282 284 282 282 283 282
274 271 270 270 272 271 276 278 272 279 279 279 279 278 278 279 280 284 284 284 284 284 281 279 280 283 285 286 286 285 286 283
270 269 273 272 271 271 272 275 281 280 279 278 278 278 278 278 279 278 281 285 286 286 285 284 284 284 285 286 287 287 286 279
271 265 266 270 270 269 270 275 279 279 279 277 278 279 278 277 277 276 274 275 277 283 283 286 286 285 285 286 286 280 277 277
268 268 262 267 266 266 269 274 275 276 276 276 277 277 278 278 277 275 274 273 272 273 275 275 280 280 280 280 275 272 271 271

GFSFLT1_sfc_thetae_078.txt.gz
Theta_e
296 297 297 297 297 297 298 298 299 299 299 300 302 303 304 303 303 302 303 301 300 301 303 305 307 308 308 307 305 302 301 300
296 296 295 295 296 296 297 298 298 298 298 298 299 300 301 303 303 303 300 300 300 301 303 303 304 305 305 305 304 300 300 299
294 295 295 295 295 296 296 297 298 298 298 298 298 299 299 300 300 299 299 297 299 297 299 300 301 302 302 302 302 299 297 297
295 295 295 295 295 295 295 296 297 297 297 297 297 297 298 298 298 297 297 295 293 294 295 296 297 298 299 300 300 299 298 298
295 295 297 295 295 294 295 295 296 296 296 296 297 297 296 296 296 295 295 294 291 292 292 292 294 294 294 294 296 296 296 296
294 294 294 295 295 295 295 294 294 294 295 296 296 295 295 293 292 291 291 291 290 289 289 288 288 288 290 290 292 291 292 289
293 293 293 293 292 293 292 291 290 291 290 291 290 290 290 289 289 289 289 288 287 286 287 286 287 290 292 291 289 288 289 288
292 291 291 290 290 289 287 287 286 285 286 286 286 287 288 288 288 287 287 286 285 285 284 284 284 289 291 291 287 287 287 287
290 290 289 289 287 285 284 284 284 285 284 284 285 285 285 284 284 285 285 283 283 283 282 282 283 288 290 290 287 286 285 285
289 288 287 286 284 282 283 283 283 284 284 284 284 283 283 282 282 280 279 278 278 280 281 282 283 287 288 289 285 284 283 283
287 286 284 284 282 281 282 282 284 283 283 283 283 281 281 282 280 277 278 283 282 283 283 283 284 286 288 288 284 282 281 282
284 283 283 282 281 280 280 281 282 281 281 280 280 280 280 280 282 283 283 282 282 281 281 282 283 283 287 289 283 282 280 280
282 282 281 280 279 279 279 280 279 280 279 279 277 279 279 280 283 282 282 281 280 280 279 280 281 283 286 288 284 284 280 280
278 278 279 275 275 276 278 278 278 276 276 274 275 276 275 282 281 280 280 279 279 278 278 278 280 281 286 288 285 285 282 282
274 275 274 272 274 273 278 279 277 274 278 278 273 274 273 275 279 280 279 278 278 278 278 278 279 280 282 285 284 284 282 283
273 274 273 272 272 270 274 277 278 277 278 280 280 276 274 275 273 275 276 277 277 278 278 276 276 278 284 284 282 280 280 279
272 271 271 269 270 269 268 274 276 278 279 279 279 278 278 278 278 283 283 284 284 283 280 278 281 282 285 286 285 284 284 279
275 273 271 268 267 264 266 271 274 277 280 279 278 277 277 277 277 276 280 286 286 286 284 284 284 284 285 286 286 286 286 277
267 265 264 265 265 264 263 266 271 278 279 277 275 276 277 277 276 275 275 274 274 279 283 286 285 285 286 286 283 278 278 276
267 262 260 260 262 262 263 267 271 273 272 273 274 277 278 277 275 274 273 272 271 272 275 273 279 279 280 280 273 273 272 271

GFSFLT1_sfc_thetae_081.txt.gz
Theta_e
295 295 295 295 295 296 296 297 297 298 298 299 300 301 302 302 302 301 301 301 300 300 302 303 305 308 311 310 308 305 304 303
294 295 295 295 295 295 296 296 297 297 297 297 298 298 299 299 300 300 299 299 299 299 299 300 301 302 304 306 307 305 304 303
294 294 294 294 295 294 294 295 296 297 297 297 297 297 297 298 298 298 299 297 299 297 298 300 302 303 303 303 304 303 301 300
294 294 294 293 293 293 294 294 294 294 295 296 296 296 296 296 296 296 296 295 294 294 295 299 300 301 301 302 302 302 302 301
292 293 293 293 292 291 293 292 292 292 292 293 294 295 295 295 295 294 294 294 292 292 293 294 296 296 297 295 298 299 299 299
291 291 291 291 291 291 291 290 289 289 289 290 291 291 291 290 289 289 289 290 290 289 289 289 292 293 293 291 294 294 294 294
291 291 290 289 289 289 288 287 286 286 285 286 286 286 286 286 286 287 287 287 287 287 287 287 289 292 293 293 290 290 290 291
290 290 289 288 288 287 285 285 284 283 284 284 284 284 285 285 285 286 286 286 285 285 285 285 285 291 292 292 288 287 288 288
289 288 288 287 286 284 283 283 283 283 282 282 283 283 283 283 283 284 283 283 283 283 283 282 283 289 290 290 286 286 286 287
288 287 286 285 284 282 282 282 282 283 282 282 282 281 281 282 282 282 279 279 279 280 278 281 285 288 289 288 286 286 285 285
286 285 283 283 281 281 281 280 280 281 281 281 281 280 280 283 282 283 280 283 282 284 284 284 284 286 287 287 285 284 283 282
283 283 283 282 280 279 279 279 280 279 279 279 279 278 280 280 282 283 283 283 283 282 282 282 282 283 286 287 284 283 281 281
282 282 282 280 277 277 277 279 278 277 276 277 276 277 279 276 281 283 282 282 282 280 280 280 280 282 284 286 288 284 281 280
278 278 279 275 274 275 276 277 279 278 276 277 280 275 274 274 280 281 281 280 280 279 279 279 280 281 284 286 287 285 282 282
274 275 276 272 273 272 273 273 276 278 278 278 280 281 279 274 274 277 279 279 279 279 278 278 278 280 282 284 284 284 282 282
272 273 274 273 271 268 271 268 272 276 278 280 281 280 280 279 274 272 273 278 276 278 278 274 273 275 284 283 280 277 279 277
274 274 274 269 268 267 264 264 268 273 276 279 280 280 279 278 278 284 285 285 285 284 279 277 281 282 285 285 285 284 284 275
278 276 270 267 265 263 261 261 264 267 271 276 278 276 272 272 273 274 278 282 282 286 285 284 284 285 285 286 285 285 283 275
274 272 268 262 263 262 260 261 263 266 271 276 276 274 272 270 272 272 275 274 274 277 279 284 286 286 286 286 282 278 278 277
269 265 266 264 262 259 260 262 264 267 271 273 271 274 274 273 272 273 273 272 272 273 275 273 279 279 279 278 273 271 270 270

GFSFLT1_sfc_thetae_084.txt.gz
Theta_e
293 293 294 293 293 294 294 294 295 296 296 297 297 298 298 299 300 300 301 301 300 301 302 306 311 313 313 312 309 306 305 304
293 293 294 294 294 294 294 294 294 295 295 295 296 296 296 296 297 297 298 298 298 298 298 299 300 302 306 308 309 306 304 304
293 293 293 293 293 293 293 293 293 293 294 294 295 295 295 296 296 296 296 296 296 296 296 297 298 298 299 301 303 304 304 304
292 291 291 291 291 291 292 291 290 290 291 292 292 292 292 293 294 294 294 294 293 293 293 295 297 300 301 302 302 302 303 303
290 290 290 290 290 289 289 289 288 288 288 288 289 289 289 289 290 290 290 290 290 290 290 290 291 295 296 296 299 300 301 301
290 289 289 288 288 288 287 286 286 286 286 286 286 286 286 286 286 286 286 287 287 287 287 287 288 291 292 292 294 295 296 295
290 289 288 288 287 287 286 285 284 284 284 284 283 284 284 284 284 284 284 285 285 285 285 285 286 291 293 294 292 290 290 291
289 288 287 286 286 285 284 283 282 282 282 282 282 282 283 283 283 284 284 284 283 283 283 283 284 290 292 292 290 289 289 288
288 288 287 285 284 283 282 282 282 281 281 281 281 281 281 281 281 282 282 282 282 282 282 281 282 289 290 290 288 287 287 287
287 287 285 284 283 282 282 282 281 282 281 281 280 280 279 279 282 283 283 279 281 281 281 280 282 288 289 288 286 286 286 286
285 285 283 283 282 281 281 279 280 280 280 280 279 277 278 279 281 281 279 282 282 281 280 281 283 286 287 287 285 285 285 283
283 283 283 282 280 279 279 278 279 278 278 277 277 276 276 277 277 278 278 280 277 280 280 278 282 282 285 287 285 285 284 282
283 282 282 280 277 276 276 278 275 277 279 279 274 279 277 272 275 278 282 281 282 281 280 279 281 282 284 286 287 287 282 281
279 278 278 274 273 274 275 274 274 272 275 279 279 280 282 280 278 276 275 280 279 279 279 278 277 276 284 285 287 286 282 282
273 274 273 271 273 271 272 271 265 268 272 277 279 280 281 282 280 278 272 273 275 274 275 274 274 275 278 284 284 284 282 282
272 273 274 272 270 268 269 265 266 267 271 274 277 280 281 281 280 279 275 277 275 276 273 272 269 273 283 283 280 278 280 276
274 274 273 268 266 265 262 261 261 266 269 271 272 276 279 279 278 282 284 284 285 285 281 273 280 284 285 285 285 285 283 279
274 273 272 270 268 264 259 258 259 262 266 268 271 276 277 276 270 272 274 282 281 282 285 284 283 284 285 286 285 285 282 276
267 267 268 266 264 260 257 256 259 261 264 266 270 275 277 273 269 270 268 269 273 277 279 283 285 286 286 285 281 275 274 273
264 263 260 260 261 257 257 259 259 262 265 267 270 273 274 272 270 270 271 268 272 273 275 273 278 278 278 277 272 270 268 268

GFSFLT1_sfc_thetae_087.txt.gz
Theta_e
294 294 294 294 294 294 294 294 294 295 297 297 298 299 299 300 300 300 301 302 303 304 304 306 310 312 313 313 312 309 308 307
293 293 293 293 293 293 292 292 292 293 294 295 295 296 297 297 297 298 298 299 299 300 301 301 302 304 306 308 309 308 308 306
292 292 292 292 292 291 291 291 290 291 292 292 292 293 293 293 294 295 295 296 296 297 297 298 299 301 300 301 303 304 304 305
291 291 291 291 290 290 290 289 289 289 290 290 290 290 289 290 290 291 291 292 292 293 293 295 296 298 299 300 301 302 302 303
290 290 290 290 289 289 289 288 287 287 288 287 288 288 288 288 288 288 288 289 289 290 289 290 291 291 293 295 298 299 300 300
290 290 289 289 288 288 288 287 286 286 286 286 286 286 286 286 286 286 286 287 287 287 288 288 289 289 290 291 293 293 294 295
290 289 288 288 287 287 286 285 285 284 284 284 284 284 284 284 284 284 285 285 285 286 286 286 287 289 291 291 290 290 290 291
289 288 288 287 286 285 284 284 284 284 283 282 282 282 283 282 282 283 283 284 284 284 284 285 285 288 290 290 288 289 289 289
289 288 287 286 285 284 284 283 283 282 281 281 281 281 281 280 280 282 283 282 283 283 283 284 284 288 289 289 288 288 288 288
288 287 286 285 284 283 283 282 282 282 281 281 280 279 279 278 279 280 281 282 282 283 282 282 283 286 288 288 287 286 286 287
287 286 285 284 283 282 281 279 280 280 280 279 279 277 277 278 278 279 279 280 282 282 282 281 281 284 286 287 286 285 285 286
285 285 284 283 281 280 279 278 278 277 278 279 280 278 278 279 279 278 277 280 280 280 282 280 280 281 285 286 285 284 284 285
284 283 281 280 277 276 277 278 275 274 274 275 278 281 281 281 281 281 279 279 279 278 279 280 280 281 284 285 286 287 284 283
279 277 278 274 274 274 276 274 273 269 269 271 274 277 279 282 282 282 282 280 277 277 277 278 279 278 282 284 286 286 283 283
273 273 273 272 273 272 272 270 263 266 268 271 272 274 277 280 281 281 281 279 278 279 279 279 277 277 278 283 284 282 282 282
272 272 273 271 270 268 269 265 265 266 268 270 272 272 274 277 280 281 281 281 280 281 281 280 277 278 284 284 281 280 282 278
270 270 270 268 268 266 262 260 260 265 268 268 269 270 272 276 279 282 282 284 283 284 283 284 281 284 285 285 285 284 283 277
268 268 267 266 265 263 258 257 257 260 264 266 267 268 270 274 277 274 276 282 282 281 282 285 284 285 286 286 285 283 280 275
262 262 262 261 261 259 255 255 256 258 261 263 266 267 269 273 275 274 272 272 272 276 279 280 281 282 285 283 279 274 273 272
258 258 256 257 259 255 254 257 257 260 262 264 265 267 269 272 273 273 272 271 269 270 274 273 276 276 276 276 272 270 268 268

GFSFLT1_sfc_thetae_090.txt.gz
Theta_e
300 300 300 300 300 300 299 299 300 301 301 301 301 302 303 303 302 303 304 304 305 306 307 308 309 311 312 313 314 314 312 311
298 298 298 299 299 298 298 298 298 298 299 299 298 299 299 299 299 298 300 299 300 301 301 303 304 305 306 308 309 308 308 310
298 298 298 297 297 297 296 296 295 296 296 296 296 296 295 295 295 295 295 296 296 296 297 298 299 300 301 302 303 304 303 304
298 298 297 297 296 295 294 294 294 295 295 295 294 294 293 293 293 294 293 294 295 294 294 294 295 296 297 298 299 301 301 301
296 296 296 295 295 294 293 293 293 293 293 293 292 291 292 292 292 292 292 293 293 293 292 292 292 293 294 294 295 296 296 298
295 295 295 294 294 293 293 292 291 292 291 290 290 290 290 290 289 290 290 290 290 290 291 291 291 290 291 291 292 292 292 293
294 293 293 292 292 291 291 290 290 290 289 288 288 287 288 287 287 287 287 288 288 289 289 288 288 289 290 291 290 289 289 290
294 293 293 292 291 291 290 289 289 288 287 286 286 286 286 285 285 286 286 287 286 287 288 288 288 288 289 289 289 290 289 289
293 293 292 291 290 289 288 288 288 287 286 285 285 284 284 284 284 285 285 285 285 286 286 286 287 288 288 288 289 290 290 290
294 293 291 290 289 288 287 287 286 285 284 284 283 282 282 281 283 283 283 284 284 285 285 285 286 287 287 287 287 287 287 288
292 290 290 288 287 286 285 285 284 283 282 282 283 282 281 282 281 282 282 282 283 283 285 284 285 286 286 286 286 284 285 286
290 289 287 285 284 284 283 283 282 281 281 281 281 281 282 282 284 283 283 283 284 283 283 284 284 284 285 285 285 284 284 285
288 286 284 283 283 283 283 282 280 278 278 278 277 279 281 282 283 284 284 284 284 282 282 284 284 284 284 285 285 286 285 284
286 283 282 281 281 282 282 279 277 274 274 275 276 277 279 279 281 282 283 283 283 282 281 282 283 284 284 284 286 286 285 285
281 281 281 280 279 279 278 275 272 272 273 275 275 277 277 279 280 281 281 282 282 282 281 282 283 284 284 285 286 284 284 284
280 279 278 278 278 277 274 271 271 271 272 274 275 275 275 277 278 279 281 283 282 283 283 282 282 284 284 285 285 285 284 283
275 274 274 273 273 273 268 266 266 269 272 273 271 273 274 275 277 280 282 283 283 285 283 283 285 285 284 286 286 285 284 283
271 270 270 269 269 268 265 263 263 265 267 269 270 271 272 273 274 275 280 282 282 284 283 282 283 284 285 286 282 281 282 280
266 266 265 264 264 266 263 262 261 263 264 266 269 270 271 272 273 274 275 276 278 281 281 280 280 280 283 284 281 278 276 274
263 263 262 261 263 263 261 261 262 264 267 267 268 269 269 270 271 273 275 276 277 278 278 276 277 276 276 277 277 274 272 271

GFSFLT1_sfc_thetae_093.txt.gz
Theta_e
302 302 302 302 302 302 302 302 302 303 303 302 302 303 303 302 301 301 302 302 302 302 303 304 305 307 308 309 310 310 310 309
301 301 301 302 302 301 301 300 300 300 300 300 299 300 299 299 298 298 299 298 298 298 299 300 300 301 302 303 304 304 305 306
300 300 301 300 300 299 299 298 298 299 299 298 298 298 297 296 296 296 296 297 297 297 297 297 297 298 298 298 299 299 300 301
300 299 299 298 297 296 296 296 296 297 296 295 295 295 294 294 295 295 295 295 295 295 294 294 295 294 295 295 295 296 297 297
299 299 298 297 296 295 295 295 295 295 294 293 293 293 293 293 293 293 293 293 292 293 292 292 292 293 292 291 292 293 293 294
298 297 297 296 295 295 294 293 294 293 293 292 292 291 291 291 290 290 290 290 290 289 290 290 290 290 289 289 290 290 290 291
298 296 295 295 294 293 292 292 293 291 290 290 289 289 289 288 288 288 288 288 288 288 288 288 288 290 290 289 288 288 288 288
296 295 294 294 293 292 292 291 290 290 288 287 287 287 287 286 286 286 286 287 286 287 287 287 288 289 289 289 287 287 288 288
296 295 294 293 292 291 291 290 289 288 287 286 286 285 285 284 284 285 285 285 285 285 285 286 286 288 288 288 286 287 287 287
296 295 293 291 290 289 288 288 287 286 286 285 284 283 283 281 283 284 284 284 284 284 284 284 284 287 287 287 285 285 285 286
294 292 290 289 289 287 286 286 285 284 283 283 283 282 282 283 283 284 284 284 284 284 285 284 283 286 286 286 284 283 284 285
292 290 289 286 286 285 285 284 282 282 282 281 281 280 281 282 283 283 283 284 284 284 285 285 284 284 286 286 284 283 283 284
288 286 285 285 285 284 284 282 281 279 279 278 278 279 280 279 281 282 283 283 283 284 284 285 285 285 286 286 286 286 285 284
286 284 283 282 283 283 281 279 278 275 274 276 277 278 279 279 279 280 282 282 282 282 283 283 284 284 286 286 286 286 284 284
283 282 280 280 280 279 278 276 271 273 274 275 276 277 278 279 279 280 280 281 281 281 282 282 283 283 284 284 284 285 284 284
282 281 279 279 278 276 274 271 272 272 273 275 276 276 276 277 278 278 279 280 279 280 282 281 281 282 285 285 284 285 285 283
278 277 276 274 273 272 269 268 267 270 273 274 272 274 274 275 275 279 280 281 282 284 283 283 285 284 284 286 286 285 284 282
275 274 273 271 270 268 266 264 264 266 268 270 271 272 272 273 273 272 276 279 281 282 283 284 285 283 283 284 284 281 282 280
270 268 267 266 265 266 265 263 261 263 265 267 269 270 271 271 272 272 272 272 274 279 281 282 283 281 281 282 282 280 277 275
265 265 264 262 263 264 261 262 263 265 267 268 269 269 269 270 270 271 272 272 274 276 279 280 280 279 277 278 279 278 274 273

GFSFLT1_sfc_thetae_096.txt.gz
Theta_e
298 298 298 297 297 298 298 297 297 297 297 297 296 296 296 296 295 295 295 296 295 295 296 297 297 298 298 298 299 299 299 301
297 297 297 297 296 296 296 296 295 295 295 295 294 295 294 293 293 293 294 294 294 294 294 294 294 294 294 294 295 295 295 296
296 296 296 296 295 294 294 294 294 295 294 293 293 292 292 291 292 292 292 292 292 292 292 292 292 292 291 291 291 291 291 293
295 295 294 293 293 292 292 292 293 293 292 291 290 290 290 290 290 291 290 290 290 290 289 289 290 289 290 289 289 290 290 290
295 294 294 293 291 291 291 291 291 291 290 289 289 289 289 289 289 288 288 288 288 288 287 287 287 288 287 287 287 288 288 289
295 294 292 291 290 290 290 290 291 290 289 288 288 288 287 286 286 285 284 286 285 284 284 285 286 287 286 285 286 285 286 286
295 293 292 291 290 290 289 289 289 287 286 286 285 285 284 284 284 283 283 283 283 283 283 283 285 289 290 289 285 284 284 284
294 293 292 291 290 289 288 288 286 284 284 284 284 283 283 283 282 282 282 282 282 282 282 282 282 288 289 288 285 284 283 284
293 292 291 290 289 288 287 286 285 284 283 282 282 281 282 281 280 281 281 280 280 281 281 281 282 287 288 287 284 283 283 283
293 292 290 289 288 285 285 285 284 283 282 282 281 279 279 276 278 279 278 278 277 280 278 278 283 286 286 286 284 283 283 284
291 290 288 287 286 285 284 283 282 282 282 281 280 276 276 278 277 277 276 281 281 283 284 283 284 286 286 285 284 282 282 284
290 288 287 285 285 283 283 282 281 280 279 278 278 275 275 275 276 274 275 278 275 279 280 284 281 280 287 287 284 283 282 283
286 284 284 284 284 282 282 280 278 276 276 273 271 274 275 269 269 270 271 272 274 274 278 278 279 284 286 286 286 286 283 283
284 283 282 282 283 281 278 277 274 271 267 267 268 270 270 267 268 270 269 270 274 275 277 279 281 284 286 286 286 286 284 284
282 281 279 279 279 277 275 272 267 265 267 268 267 267 268 272 273 267 267 271 273 275 276 278 280 282 283 283 284 284 284 285
282 281 279 277 274 272 271 269 268 266 268 267 268 266 268 269 269 271 271 272 272 277 278 278 278 281 284 284 283 284 285 284
279 277 274 272 270 267 265 265 263 265 267 266 266 266 268 268 270 276 278 279 280 281 280 280 283 284 285 286 284 285 286 275
276 272 269 268 265 262 262 262 262 262 263 263 265 264 264 264 266 268 271 276 277 279 280 281 282 283 285 284 283 284 283 277
271 269 267 266 264 262 260 259 256 256 261 259 260 260 261 262 262 264 267 267 269 275 277 279 281 282 282 282 281 277 274 275
265 263 263 261 259 258 256 257 255 258 259 259 259 259 261 261 264 266 267 268 269 271 274 275 280 280 280 281 274 273 271 271

GFSFLT1_sfc_thetae_102.txt.gz
Theta_e
294 295 295 295 295 295 295 295 295 296 297 296 295 295 294 294 292 291 291 291 291 290 290 290 290 291 290 289 289 288 288 290
293 294 294 293 293 293 293 293 293 294 294 293 292 292 291 291 290 290 289 289 289 289 289 288 288 289 288 287 287 287 287 287
293 292 292 292 292 292 292 292 292 292 291 291 290 290 289 288 288 288 288 287 287 287 287 287 287 287 286 285 286 285 285 285
291 291 292 291 291 291 291 291 290 291 290 289 288 288 287 286 287 287 286 286 285 286 285 285 285 285 285 285 285 284 284 284
292 292 291 291 290 290 290 290 289 289 288 287 286 286 286 285 285 285 285 284 284 284 283 283 283 284 284 285 284 284 283 284
293 292 292 291 290 290 290 288 288 287 287 286 285 285 284 283 283 283 283 283 283 283 282 282 283 284 284 284 284 284 283 282
294 293 291 291 290 290 289 288 288 286 285 285 284 283 282 282 283 283 283 282 282 282 282 281 283 287 287 286 284 284 283 282
294 294 292 291 291 289 289 287 285 284 283 283 282 282 283 283 283 282 282 282 281 281 281 281 281 286 286 286 284 283 283 283
296 295 293 292 290 289 286 285 284 283 283 282 283 282 282 281 281 281 281 281 281 281 280 280 281 286 287 287 284 284 284 284
298 296 292 290 288 287 285 284 283 283 283 282 282 281 280 279 279 280 279 278 277 279 276 275 279 284 287 285 283 282 282 282
296 294 290 289 287 286 284 283 283 283 283 282 281 280 279 279 279 278 277 278 278 278 276 275 273 281 286 286 280 279 280 282
294 291 289 287 287 285 284 283 284 282 281 280 279 278 278 278 278 276 274 275 270 273 272 271 273 275 285 286 281 280 282 282
290 288 286 287 287 285 284 283 282 281 279 278 277 279 277 276 274 273 272 269 268 267 268 271 273 279 282 284 285 285 282 282
288 285 285 286 287 284 284 281 280 279 277 276 276 276 275 273 273 272 268 268 267 268 266 268 272 272 281 283 284 284 282 283
285 284 283 285 285 286 281 280 279 277 276 275 274 273 273 274 273 269 267 264 266 264 264 266 271 272 274 277 281 283 283 283
285 284 283 283 281 281 279 278 277 276 274 274 274 273 271 271 270 270 267 268 263 263 264 265 268 276 281 281 281 281 283 283
281 282 279 279 276 276 277 278 276 274 273 273 271 270 270 269 269 273 275 277 277 278 274 268 278 280 281 282 283 283 284 279
280 280 278 277 276 275 275 276 275 275 272 270 270 269 267 267 266 263 265 273 274 275 276 277 277 279 280 281 281 280 279 270
279 278 278 277 275 272 272 273 272 270 270 269 267 267 264 264 263 263 262 259 259 268 272 274 276 277 279 278 273 264 265 259
278 279 278 275 270 268 268 268 266 266 264 264 263 263 263 262 262 260 258 257 257 257 266 266 274 275 274 273 258 257 258 259

GFSFLT1_sfc_thetae_105.txt.gz
Theta_e
295 295 296 297 297 297 297 297 297 300 301 298 298 297 296 296 294 292 291 290 290 289 289 289 289 288 288 287 287 287 287 287
294 294 294 294 294 294 294 294 293 294 294 294 293 294 293 291 290 290 289 289 288 288 287 287 287 287 286 286 285 285 285 285
292 292 291 292 292 292 292 292 291 292 292 291 291 291 290 289 288 288 287 287 286 286 286 286 286 285 285 284 284 283 283 283
291 291 291 290 291 290 290 290 290 290 290 289 288 288 287 287 286 286 285 285 285 285 284 284 284 284 284 284 283 283 282 282
291 291 291 291 290 289 289 289 288 288 288 287 287 287 286 286 285 285 285 284 284 283 283 283 283 284 284 284 283 282 282 283
292 291 291 290 289 290 289 288 288 288 287 286 285 285 284 284 284 283 283 283 283 282 282 282 283 284 283 284 283 283 282 283
294 293 292 292 291 290 289 287 287 286 285 284 284 284 283 283 282 282 282 282 282 282 282 281 283 288 287 285 283 282 282 282
294 293 293 292 292 290 289 287 285 285 284 284 283 283 283 282 282 282 281 282 281 281 281 280 282 287 286 286 283 282 282 282
296 295 294 293 292 291 288 286 285 284 284 283 282 282 281 281 281 281 281 281 280 281 281 281 282 286 286 287 283 282 282 282
298 297 295 293 292 289 286 285 284 284 283 283 282 281 281 280 280 280 280 278 278 280 279 279 280 284 286 286 282 282 282 282
297 296 294 291 289 287 285 285 284 284 284 283 282 282 281 280 279 279 278 279 280 280 279 277 275 281 285 286 280 275 279 280
295 294 293 289 287 287 286 285 285 284 282 281 281 281 280 279 278 277 277 278 277 277 276 276 275 276 284 285 281 279 276 276
292 290 289 287 288 287 285 286 283 283 282 280 279 280 279 278 277 277 277 276 275 275 275 275 275 278 281 283 284 283 275 275
290 287 286 287 288 286 286 283 282 281 280 278 278 278 277 277 275 275 275 275 274 274 273 272 274 274 280 281 283 283 279 279
282 282 283 285 287 288 283 283 282 281 278 277 277 276 276 277 276 275 274 274 274 273 272 272 272 273 274 275 275 279 280 281
282 282 281 283 283 282 283 283 282 280 277 277 276 276 275 274 274 274 274 274 272 271 270 269 269 273 279 277 275 274 277 278
278 280 280 280 280 281 282 283 279 277 276 276 275 274 273 273 271 275 276 278 279 279 274 271 277 279 280 281 282 282 281 275
279 278 279 277 277 278 281 280 280 279 276 274 273 273 272 272 271 269 270 275 276 276 276 277 277 278 279 280 279 277 273 260
278 277 278 277 276 277 279 280 279 277 275 274 273 272 271 270 270 269 269 268 266 270 272 274 275 277 278 276 270 259 259 255
276 276 277 277 275 275 279 279 277 275 274 273 272 270 269 267 266 266 266 265 263 260 266 265 273 275 273 271 256 255 253 253